Regional Weather Roundup
Issued by NWS Sterling, VA

Home | Current Version | Previous Version | Graphics & Text | Print | Product List | Glossary On
Versions: 1 2 3 4 5 6 7 8 9 10 11 12 13 14 15 16 17 18 19 20 21 22 23 24 25 26 27 28 29 30 31 32 33 34 35 36 37 38 39 40 41 42 43 44 45 46 47 48 49 50
000
ASUS41 KLWX 272110
RWRLWX

REGIONAL WEATHER ROUNDUP
NATIONAL WEATHER SERVICE BALTIMORE MD/WASHINGTON DC
400 PM EST FRI FEB 27 2015

Note: "FAIR" indicates few or no clouds below 12,000 feet
with no significant weather and/or obstructions to visibility.
 TC=TEMPERATURE CELSIUS

 * =Non NWS site. Station does not report precipitation (e.g. rain,
    snow, etc.), thunder, or fog.

DCZ001-MDZ009-015-VAZ040>042-051-053>054-272200-
WASHINGTON METRO

CITY           SKY/WX    TMP DP  RH WIND       PRES   REMARKS
WASHINGTON NAT MOSUNNY   34  11  38 NW15G21   30.50R WCI  24
DULLES         MOSUNNY   30   8  39 N12       30.48R WCI  20
ANDREWS AFB    SUNNY     31  11  42 NW13      30.47R WCI  22
FT BELVOIR     SUNNY     33   9  36 N8        30.49R WCI  26
QUANTICO       MOSUNNY   34  11  38 N12       30.50R WCI  25
COLLEGE PARK*  SUNNY     32  10  40 NW10      30.48R WCI  24
LEESBURG*      SUNNY     32  12  43 N7        30.48R
MANASSAS*      SUNNY     32  16  51 N9G17     30.48R WCI  24
GAITHERSBURG*  SUNNY     27   7  43 NW8G17    30.50R WCI  18

$$

MDZ006>007-011-014-272200-
BALTIMORE METRO

CITY           SKY/WX    TMP DP  RH WIND       PRES   REMARKS
BWI AIRPORT    MOSUNNY   30  10  43 NW15G21   30.48R WCI  19
MD SCIENCE CTR   N/A     29   9  43 MISG      30.44
MARTIN STATE   MOSUNNY   30  12  47 NW10      30.51R WCI  21
ANNAPOLIS      SUNNY     30  12  47 NW10      30.48R WCI  21
FORT MEADE*    SUNNY     30  12  47 NW8       30.50R WCI  23

$$

MDZ012-015-019>023-272200-
MARYLAND EASTERN SHORE

CITY           SKY/WX    TMP DP  RH WIND       PRES   REMARKS
OCEAN CITY     CLOUDY    30  24  78 NE3       30.47R HAZE
SALISBURY      CLOUDY    32  22  66 NW10      30.47R HAZE    WCI  24
BAY BRIDGE AP*   N/A     32  14  47 N10       30.48R WCI  24
CAMBRIDGE*     SUNNY     34  19  55 NW9       30.46S WCI  26
EASTON*        SUNNY     32  18  55 N12       30.50R WCI  23

$$

MDZ017>025-272200-
SOUTHERN MARYLAND

CITY           SKY/WX    TMP DP  RH WIND       PRES   REMARKS
PATUXENT RIVER MOSUNNY   30  20  66 NE9       30.47R WCI  22
ST INIGOES     MOSUNNY   31  20  63 NE7       30.47R
LEONARDTOWN*   MOSUNNY   32  21  64 CALM      30.47R

$$

MDZ003>005-272200-
NORTH CENTRAL MARYLAND

CITY           SKY/WX    TMP DP  RH WIND       PRES   REMARKS
FREDERICK*     SUNNY     32   3  29 W9        30.51R WCI  24
HAGERSTOWN APT MOSUNNY   29   6  38 NW12      30.45R WCI  19
WESTMINSTER*   SUNNY     27   9  46 NW8       30.43R WCI  18

$$

MDZ501>502-272200-
WESTERN MARYLAND

CITY           SKY/WX    TMP DP  RH WIND       PRES   REMARKS
OAKLAND*       MOSUNNY   14  -4  44 W12G17    30.32R WCI   0
CUMBERLAND*    SUNNY     28   3  34 NW12G18   30.52R WCI  18

$$

VAZ025>031-272200-
SHENANDOAH VALLEY

CITY           SKY/WX    TMP DP  RH WIND       PRES   REMARKS
WINCHESTER*    SUNNY     32   3  29 W13G18    30.44R WCI  22
FRONT ROYAL*   FAIR      32   9  37 NW7       30.43R
LURAY*         FAIR      36  14  41 NW10      30.41R WCI  28
NEW MARKET*    CLOUDY    32   8  36 N6        30.41R
STAUNTON*      SUNNY     34  12  40 NE5       30.39S
WAYNESBORO*    FAIR      34   8  34 W8        30.35S WCI  27

$$

WVZ021-048>050-054>055-272200-
EASTERN WEST VIRGINIA PANHANDLE

CITY           SKY/WX    TMP DP  RH WIND       PRES   REMARKS
MARTINSBURG    SUNNY     32   7  35 N14G20    30.46R WCI  22
PETERSBURG*    NOT AVBL

$$

VAZ036>039-050-272200-
CENTRAL FOOTHILLS

CITY           SKY/WX    TMP DP  RH WIND       PRES   REMARKS
CHARLOTTESVILL PTSUNNY   37  13  37 S7        30.40R
CULPEPER*      SUNNY     36  10  35 NE6       30.46R
ORANGE*        CLOUDY    34  16  47 CALM      30.45R
GORDONSVILLE*  CLOUDY    34  15  45 NE7       30.42R
WARRENTON*     FAIR      35  18  51 N9        30.46R WCI  27

$$

VAZ055>057-272200-
NORTH AND CENTRAL PIEDMONT

CITY           SKY/WX    TMP DP  RH WIND       PRES   REMARKS
FREDERICKSBRG* CLOUDY    36  14  40 NW6       30.47R
STAFFORD*      SUNNY     34  10  36 NE6       30.51R

$$

NCZ024-NYZ072-PAZ021-071-VAZ022-071-272200-
OTHER REGIONAL OBSERVATIONS

CITY           SKY/WX    TMP DP  RH WIND       PRES   REMARKS
NEW YORK CITY  SUNNY     30   2  30 NW8       30.42R WCI  22
PHILADELPHIA   MOSUNNY   30   8  39 NW9       30.46R WCI  22
PITTSBURGH     MOSUNNY   17  -3  41 NW12      30.52R WCI   4
ROANOKE        MOSUNNY   34  12  40 NW10      30.42R WCI  26
RICHMOND       PTSUNNY   37  22  54 NE7       30.44R
RALEIGH        MOSUNNY   44  22  41 N6        30.39R

$$

ANZ530>537-272200-
MARINE OBSERVATIONS

STATION/POSITION TIME  TEMP    WIND        PRES
                       AIR SEA DIR/SP/G
                 (UTC) (F)     (DEG/KT/KT) (MB)
THOMAS PT LIGHT  2100   31 32  330/  8/  9 1033.2R
BALT KEY BRIDGE  2000   29     290/ 13/ 14 1031.4R
COVE POINT       2000   28      30/  7/  9 1031.2R
LEWISETTA        2000   31 32              1031.3R
SOLOMONS ISLAND  2006      33                N/A

$$




USA.gov is the U.S. government's official web portal to all federal, state and local government web resources and services.